Location: ??
(35.4627°N, 139.3695°E)
Time: 15:55:40
(UTC+00:00)

Delta 2 Rocket - Pass Details

Date: 25 November 2020
Orbit: 415 x 805 km, 35.6° (Epoch: 20 January)

Event Time Altitude Azimuth Distance (km) Brightness Sun altitude
Exits shadow 19:11:29 61° 120° (ESE) 738 4.0 -27.5°
Drops below altitude 10° 19:15:15 10° 105° (ESE) 1,946 7.1 -26.8°
Sets 19:17:25 0° 104° (ESE) 2,781 8.2 -26.3°
